[[{"header":{"parameterUnit":"m.s-1","parameterCategory":2,"la1":30.2992,"la2":30.254,"lo1":-89.0895,"lo2":-89.0443,"dy":0.0025,"dx":0.0025,"nx":19,"ny":19,"refTime":"2026-04-22T09:00:00:Z","depth":"0","parameterNumber":2,"parameterNumberName":"U-component_of_CURRENTS"},"data":[0,0,0,0.2976,0.2978,0.3011,0.3011,0.3023,0.3023,0,0,0,0,0,0,0,0,0,0,0,0.296,0.2961,0.2976,0.2978,0.3011,0.3011,0.3023,0.3023,0,0,0,0,0,0,0,0,0,0,0,0.296,0.296,0.2961,0.2978,0.3011,0.3011,0.3023,0.3,0,0,0,0,0,0,0,0,0,0,0.2969,0.2962,0.296,0.2961,0.2978,0.3011,0.3011,0.2999,0.3001,0.3006,0,0.3026,0,0.3037,0.3025,0.3025,0,0,0,0.2956,0.296,0.2979,0.2961,0.2979,0.3011,0.299,0.3,0.3003,0.3009,0.3026,0.3027,0.3037,0.3025,0.3025,0.315,0.3151,0,0,0.2954,0.2952,0.2978,0.2982,0.3007,0.2989,0.2991,0.3002,0.3007,0.3026,0.3027,0.3037,0.3026,0.3026,0.3149,0.3151,0,0,0,0.2963,0.2951,0.2969,0.2981,0.2996,0.2991,0.2993,0.3006,0.3016,0.3028,0.3037,0.3026,0.3026,0.3148,0.315,0.3289,0,0,0,0.2961,0.2958,0.2969,0.2966,0.2997,0.3006,0.2996,0.3014,0.3016,0.3037,0.3026,0.3026,0.3147,0.3149,0.3283,0.3271,0,0,0,0.2955,0.2957,0.2969,0.2966,0.2992,0.3006,0.3015,0.3015,0.3023,0.3025,0.3026,0.3146,0.3149,0.3277,0.3263,0.3278,0,0,0,0.2939,0.2987,0.2969,0.3033,0.2992,0.3057,0.3015,0.3052,0.3062,0.3026,0.3147,0.315,0.3275,0.3259,0.3275,0.3151,0.3159,0,0,0.2994,0.2993,0.3035,0.3022,0.3098,0.3049,0.3155,0.3146,0.3104,0.3134,0.3137,0.3285,0.3263,0.3278,0.3307,0.331,0,0,0,0.305,0.3072,0.3096,0.3135,0.3167,0.3203,0.3209,0.3233,0.3276,0.3128,0.3301,0.3281,0.3286,0.3204,0.3208,0.2981,0.3162,0.3162,0.3162,0.3075,0.3113,0.3171,0.3222,0.3266,0.3323,0.3367,0.3395,0.3376,0.3433,0.3411,0.3527,0.3448,0.3448,0.3218,0.3465,0.3466,0.3466,0.3467,0.3134,0.316,0.3209,0.3273,0.3326,0.3398,0.3511,0.3536,0.361,0.3572,0.3573,0.3374,0.3459,0.3213,0.3476,0.3474,0.3473,0.3472,0.3472,0.3118,0.3137,0.3175,0.3257,0.333,0.3424,0.351,0.3608,0.3658,0.3697,0.3547,0.3542,0.3302,0.3698,0.3698,0.3698,0.3698,0.3698,0.3698,0.3073,0.3119,0.3149,0.3239,0.3271,0.3356,0.3506,0.3565,0.3616,0.3629,0.3628,0.3307,0.3595,0.3559,0.37,0.3699,0.3699,0.3699,0.3699,0.306,0.3065,0.3109,0.3139,0.3217,0.3213,0.3389,0.3447,0.3526,0.3509,0.3263,0.3588,0.3501,0.3495,0.3456,0.3561,0.3561,0.3561,0.3561,0.302,0.304,0.3057,0.3078,0.3118,0.3146,0.3064,0.3109,0.3118,0.3049,0.3083,0.3004,0.3019,0.2899,0.2907,0.2853,0.2802,0.2801,0.28,0.3003,0.3013,0.2996,0.302,0.3053,0.3009,0.2803,0.2592,0.265,0.275,0.2795,0.2827,0.2696,0.2738,0.2536,0.2566,0.2473,0,0]},{"header":{"parameterUnit":"m.s-1","parameterCategory":2,"la1":30.2992,"la2":30.254,"lo1":-89.0895,"lo2":-89.0443,"dy":0.0025,"dx":0.0025,"nx":19,"ny":19,"refTime":"2026-04-22T09:00:00:Z","depth":"0","parameterNumber":3,"parameterNumberName":"V-component_of_CURRENTS"},"data":[0,0,0,0.0111,0.0113,0.0186,0.0186,0.0224,0.0224,0,0,0,0,0,0,0,0,0,0,0,0.0083,0.0083,0.0111,0.0113,0.0185,0.0186,0.0224,0.0224,0,0,0,0,0,0,0,0,0,0,0,0.0083,0.0083,0.0084,0.0113,0.0185,0.0186,0.0224,0.0185,0,0,0,0,0,0,0,0,0,0,0.0122,0.0109,0.0083,0.0084,0.0113,0.0185,0.0186,0.0184,0.0188,0.0171,0,0.0175,0,0.0195,0.0224,0.0224,0,0,0,0.0124,0.0106,0.0115,0.0084,0.0114,0.0185,0.0156,0.0187,0.019,0.0176,0.0176,0.0178,0.0196,0.0224,0.0224,0.0333,0.0334,0,0,0.012,0.0109,0.0112,0.0117,0.0121,0.0153,0.0158,0.019,0.0193,0.0176,0.0179,0.0196,0.0224,0.0224,0.0332,0.0333,0,0,0,0.0101,0.0106,0.0116,0.0115,0.013,0.0155,0.016,0.0193,0.0192,0.018,0.0197,0.0224,0.0224,0.033,0.0332,0.0487,0,0,0,0.0099,0.0094,0.0113,0.0109,0.0129,0.0172,0.0163,0.0191,0.0195,0.0196,0.0224,0.0224,0.0329,0.0331,0.048,0.0521,0,0,0,0.0082,0.0093,0.0095,0.0108,0.0134,0.0172,0.0176,0.0193,0.0204,0.0224,0.0224,0.0328,0.0331,0.0473,0.0511,0.0563,0,0,0,0.0076,0.0112,0.0095,0.0147,0.0133,0.023,0.0176,0.0239,0.0265,0.0224,0.0329,0.0332,0.0472,0.0505,0.0558,0.0605,0.0636,0,0,0.0126,0.0117,0.0153,0.014,0.0244,0.0222,0.0352,0.0345,0.03,0.0313,0.0316,0.0482,0.051,0.0562,0.0765,0.0791,0,0,0,0.0173,0.0205,0.0232,0.0283,0.0327,0.0406,0.0413,0.0434,0.0477,0.0325,0.0495,0.0508,0.0535,0.0553,0.0574,0.0472,0.0345,0.0345,0.0344,0.0247,0.0277,0.0362,0.0415,0.0472,0.0545,0.0617,0.0643,0.0581,0.0635,0.0645,0.0802,0.0826,0.0841,0.0738,0.0671,0.0671,0.0672,0.0672,0.0369,0.0428,0.0468,0.0557,0.0615,0.0709,0.0809,0.0811,0.0897,0.0817,0.0837,0.0729,0.0873,0.0754,0.0682,0.0681,0.0679,0.0678,0.0678,0.0446,0.0476,0.0518,0.0634,0.0737,0.0807,0.0953,0.0995,0.1005,0.1061,0.1015,0.1012,0.0891,0.1052,0.1053,0.1053,0.1054,0.1054,0.1054,0.0495,0.0543,0.0619,0.072,0.0784,0.0899,0.1035,0.1114,0.1174,0.117,0.1169,0.0948,0.0916,0.0883,0.1062,0.106,0.1059,0.1059,0.1058,0.0585,0.0586,0.0706,0.0771,0.0926,0.1076,0.1172,0.1321,0.136,0.1395,0.1184,0.1226,0.1165,0.1147,0.1118,0.1347,0.1347,0.1347,0.1347,0.0619,0.0639,0.0775,0.0889,0.1037,0.1166,0.1399,0.1512,0.1434,0.1351,0.1246,0.1174,0.1166,0.1098,0.1081,0.1047,0.1253,0.1252,0.1252,0.0662,0.07,0.0799,0.0917,0.1082,0.1277,0.1511,0.1665,0.1466,0.1233,0.1101,0.1105,0.0978,0.0974,0.0842,0.0826,0.076,0,0]}],[{"header":{"parameterUnit":"m.s-1","parameterCategory":2,"la1":30.2992,"la2":30.254,"lo1":-89.0895,"lo2":-89.0443,"dy":0.0025,"dx":0.0025,"nx":19,"ny":19,"refTime":"2026-04-22T09:00:00:Z","depth":"2","parameterNumber":2,"parameterNumberName":"U-component_of_CURRENTS"},"data":[0,0,0,0.2356,0.236,0.2476,0.2476,0.2542,0.2542,0,0,0,0,0,0,0,0,0,0,0,0.2294,0.2295,0.2356,0.2361,0.2476,0.2476,0.2541,0.2542,0,0,0,0,0,0,0,0,0,0,0,0.2293,0.2295,0.2296,0.2361,0.2476,0.2476,0.2541,0.2463,0,0,0,0,0,0,0,0,0,0,0.2356,0.2358,0.2294,0.2296,0.2362,0.2476,0.2476,0.246,0.2468,0.248,0,0.252,0,0.2564,0.2549,0.2549,0,0,0,0.2315,0.2352,0.2366,0.2297,0.2364,0.2476,0.2411,0.2465,0.2474,0.249,0.2522,0.2525,0.2565,0.255,0.255,0.2739,0.2741,0,0,0.2309,0.2325,0.236,0.2373,0.2424,0.2408,0.2415,0.2471,0.2502,0.2522,0.2528,0.2566,0.255,0.2551,0.2738,0.274,0,0,0,0.2321,0.2321,0.2334,0.2368,0.2414,0.2412,0.2421,0.2498,0.25,0.2529,0.2567,0.2551,0.2552,0.2737,0.2739,0.2915,0,0,0,0.2315,0.2331,0.2332,0.2344,0.2414,0.2481,0.2448,0.2494,0.2503,0.2566,0.2551,0.2553,0.2735,0.2738,0.2907,0.2902,0,0,0,0.2283,0.2329,0.2346,0.2344,0.2416,0.248,0.2484,0.2496,0.2528,0.255,0.2553,0.2734,0.2737,0.29,0.2892,0.2918,0,0,0,0.2286,0.2369,0.2347,0.2478,0.2416,0.2536,0.2484,0.2546,0.2569,0.2552,0.2735,0.2739,0.2898,0.2886,0.2913,0.2615,0.2615,0,0,0.2389,0.2383,0.2462,0.2447,0.2577,0.2515,0.2664,0.2645,0.2623,0.2699,0.2704,0.291,0.2892,0.2917,0.2798,0.2791,0,0,0,0.2496,0.2531,0.2574,0.2656,0.2715,0.275,0.2751,0.2771,0.2841,0.2665,0.2925,0.2905,0.2916,0.2728,0.2724,0.2754,0.2753,0.2753,0.2752,0.2586,0.2633,0.2748,0.2798,0.2873,0.2915,0.2958,0.2982,0.2967,0.3031,0.3065,0.3213,0.302,0.3012,0.3124,0.3125,0.3125,0.3126,0.3126,0.2698,0.276,0.2831,0.295,0.3,0.3109,0.3187,0.3188,0.3276,0.3237,0.3242,0.2941,0.3017,0.3141,0.3138,0.3136,0.3134,0.3133,0.3132,0.2716,0.275,0.2836,0.2978,0.3105,0.3196,0.3278,0.3342,0.339,0.3425,0.3155,0.3147,0.325,0.3438,0.3439,0.3439,0.3439,0.3439,0.3439,0.2686,0.2767,0.2836,0.299,0.3067,0.3188,0.3314,0.335,0.3304,0.3252,0.3249,0.3315,0.3305,0.3265,0.3442,0.3441,0.3441,0.3441,0.3441,0.2677,0.2697,0.2782,0.2851,0.2993,0.292,0.3128,0.3073,0.3131,0.3045,0.3135,0.3142,0.3021,0.3018,0.2969,0.3059,0.3059,0.3059,0.3059,0.2619,0.2656,0.2707,0.2756,0.2796,0.2786,0.257,0.2508,0.2598,0.2574,0.2595,0.2482,0.2507,0.2351,0.2364,0.2298,0.2214,0.2212,0.2211,0.2567,0.2604,0.2602,0.2679,0.2687,0.2531,0.2153,0.187,0.192,0.2182,0.2495,0.2993,0.2879,0.2898,0.2696,0.2703,0.2612,0,0]},{"header":{"parameterUnit":"m.s-1","parameterCategory":2,"la1":30.2992,"la2":30.254,"lo1":-89.0895,"lo2":-89.0443,"dy":0.0025,"dx":0.0025,"nx":19,"ny":19,"refTime":"2026-04-22T09:00:00:Z","depth":"2","parameterNumber":3,"parameterNumberName":"V-component_of_CURRENTS"},"data":[0,0,0,-0.0147,-0.0146,-0.0029,-0.0028,0.0105,0.0106,0,0,0,0,0,0,0,0,0,0,0,-0.0188,-0.0188,-0.0147,-0.0146,-0.0029,-0.0028,0.0105,0.0106,0,0,0,0,0,0,0,0,0,0,0,-0.0188,-0.0188,-0.0188,-0.0146,-0.0029,-0.0028,0.0105,0.003,0,0,0,0,0,0,0,0,0,0,-0.0077,-0.013,-0.0188,-0.0188,-0.0145,-0.003,-0.0028,0.0027,0.0035,0.0035,0,0.0025,0,0.0049,0.011,0.0111,0,0,0,-0.0105,-0.0137,-0.0111,-0.0188,-0.0145,-0.003,-0.007,0.0032,0.004,0.0044,0.0027,0.0032,0.0052,0.0111,0.0111,0.0208,0.0208,0,0,-0.0112,-0.0153,-0.0117,-0.0107,-0.0151,-0.0075,-0.0067,0.0038,0.0033,0.0028,0.0036,0.0054,0.0111,0.0112,0.0207,0.0208,0,0,0,-0.0158,-0.0158,-0.0132,-0.0112,-0.01,-0.0072,-0.0064,0.0029,0.0035,0.0037,0.0055,0.0112,0.0113,0.0207,0.0207,0.0313,0,0,0,-0.016,-0.0187,-0.0136,-0.0156,-0.0104,-0.0034,-0.0076,0.0028,0.0041,0.0055,0.0112,0.0113,0.0206,0.0207,0.0309,0.0356,0,0,0,-0.0187,-0.0189,-0.0188,-0.0159,-0.0127,-0.0035,-0.002,0.0033,0.0049,0.0111,0.0114,0.0206,0.0207,0.0305,0.0349,0.0429,0,0,0,-0.0212,-0.021,-0.019,-0.0173,-0.0129,-0.0023,-0.002,0.0065,0.0121,0.0112,0.0206,0.0207,0.0304,0.0345,0.0424,0.046,0.0484,0,0,-0.0215,-0.0212,-0.0195,-0.0174,-0.0079,-0.0034,0.0092,0.0154,0.0137,0.0176,0.0179,0.031,0.0349,0.0428,0.0531,0.0553,0,0,0,-0.0197,-0.0177,-0.0148,-0.0093,-0.0023,0.0106,0.0163,0.0196,0.0264,0.0166,0.0305,0.0326,0.0373,0.0385,0.0402,0.0213,0.0213,0.0213,0.0213,-0.0184,-0.014,-0.0076,0.0004,0.0079,0.0211,0.0303,0.0356,0.0324,0.0364,0.0409,0.0535,0.0548,0.0562,0.0403,0.0404,0.0404,0.0404,0.0404,-0.0123,-0.0066,0.0002,0.0086,0.021,0.0334,0.0465,0.0484,0.0574,0.0509,0.0549,0.049,0.0588,0.0413,0.0411,0.041,0.0409,0.0409,0.0408,-0.0075,-0.0041,0.0003,0.0131,0.0298,0.0437,0.0626,0.067,0.0675,0.0721,0.0727,0.0725,0.0611,0.0746,0.0746,0.0747,0.0747,0.0748,0.0748,-0.0037,0.0003,0.0083,0.0201,0.0307,0.0508,0.0722,0.0819,0.0882,0.0849,0.0849,0.065,0.0639,0.063,0.0757,0.0755,0.0754,0.0753,0.0753,0.0026,0.004,0.0152,0.0236,0.0469,0.0708,0.0858,0.1077,0.1113,0.1141,0.0923,0.0916,0.0888,0.0872,0.0868,0.1049,0.1049,0.1049,0.1049,0.0073,0.0084,0.0267,0.0404,0.0612,0.0823,0.1133,0.1207,0.1168,0.1063,0.1062,0.0981,0.0969,0.0939,0.0921,0.0914,0.1108,0.1108,0.1108,0.0121,0.0179,0.033,0.0475,0.0702,0.0993,0.129,0.1288,0.1111,0.1105,0.102,0.1063,0.0936,0.0921,0.0861,0.0839,0.0822,0,0]}],[{"header":{"parameterUnit":"m.s-1","parameterCategory":2,"la1":30.2992,"la2":30.254,"lo1":-89.0895,"lo2":-89.0443,"dy":0.0025,"dx":0.0025,"nx":19,"ny":19,"refTime":"2026-04-22T09:00:00:Z","depth":"4","parameterNumber":2,"parameterNumberName":"U-component_of_CURRENTS"},"data":[0,0,0,0.0677,0.0679,0.0862,0.0863,0.1102,0.1103,0,0,0,0,0,0,0,0,0,0,0,0.0626,0.0627,0.0677,0.068,0.0862,0.0863,0.1102,0.1103,0,0,0,0,0,0,0,0,0,0,0,0.0626,0.0627,0.0627,0.068,0.0862,0.0864,0.1101,0.0973,0,0,0,0,0,0,0,0,0,0,0.08,0.0735,0.0627,0.0627,0.0681,0.0861,0.0864,0.0967,0.0981,0.1007,0,0.1017,0,0.104,0.1115,0.1116,0,0,0,0.0724,0.0723,0.0763,0.0628,0.0682,0.0861,0.0792,0.0975,0.0991,0.1025,0.102,0.1029,0.1044,0.1117,0.1117,0.128,0.1281,0,0,0.0714,0.0677,0.0752,0.0771,0.0706,0.0786,0.0797,0.0985,0.0996,0.1021,0.1034,0.1048,0.1118,0.1119,0.128,0.128,0,0,0,0.0655,0.067,0.0707,0.0762,0.0781,0.079,0.0803,0.0989,0.0998,0.1037,0.1051,0.1119,0.1121,0.1279,0.128,0.1301,0,0,0,0.0651,0.0632,0.0701,0.0684,0.0776,0.0884,0.0803,0.0986,0.1007,0.105,0.1119,0.1123,0.1279,0.128,0.1299,0.1298,0,0,0,0.0622,0.0629,0.0641,0.0681,0.0737,0.0882,0.0905,0.0992,0.1013,0.1116,0.1123,0.1279,0.128,0.1298,0.1296,0.1357,0,0,0,0.0593,0.0596,0.064,0.0658,0.0735,0.0832,0.0904,0.1001,0.1085,0.112,0.1279,0.128,0.1297,0.1295,0.1355,0.1152,0,0,0,0.0577,0.0593,0.0605,0.0648,0.0708,0.0812,0.0919,0.1056,0.1112,0.1224,0.1229,0.13,0.1296,0.1356,0.1215,0,0,0,0,0.0588,0.0596,0.062,0.0671,0.0752,0.0871,0.1,0.1069,0.1213,0.1158,0.1316,0.1313,0.135,0.1226,0.1285,0.1285,0.1285,0.1285,0.1285,0.0547,0.0592,0.0629,0.0704,0.0774,0.0931,0.1038,0.1164,0.1219,0.1285,0.1342,0.1415,0.1285,0.1361,0.1361,0.1361,0.1361,0.1361,0.1361,0.0537,0.0558,0.0643,0.0699,0.0824,0.0946,0.1121,0.1199,0.1368,0.1374,0.1411,0.127,0.1364,0.1363,0.1363,0.1363,0.1362,0.1362,0.1362,0.0492,0.0511,0.0566,0.0666,0.0809,0.0972,0.1111,0.1256,0.1384,0.1441,0.1353,0.1444,0.1431,0.1488,0.1488,0.1488,0.1489,0.1489,0.1489,0.043,0.0479,0.0511,0.0631,0.0726,0.0886,0.1123,0.1229,0.1378,0.1356,0.1471,0.1458,0.1454,0.1439,0.1493,0.1492,0.1492,0.1492,0.1491,0.0372,0.0388,0.0419,0.0484,0.0664,0.0768,0.0998,0.1162,0.1265,0.1292,0.1317,0.1324,0.1304,0.1304,0.1283,0.1293,0.129,0.1288,0,0.0332,0.0339,0.0368,0.0411,0.0513,0.0684,0.0804,0.0957,0.1108,0.1063,0.1252,0.1272,0.1278,0.1247,0.1244,0.1213,0,0,0,0.0322,0.0328,0.0327,0.0347,0.0445,0.0629,0.0831,0.0851,0.1086,0.1118,0.1228,0.1244,0.1357,0.1506,0.1494,0.1489,0.1465,0,0]},{"header":{"parameterUnit":"m.s-1","parameterCategory":2,"la1":30.2992,"la2":30.254,"lo1":-89.0895,"lo2":-89.0443,"dy":0.0025,"dx":0.0025,"nx":19,"ny":19,"refTime":"2026-04-22T09:00:00:Z","depth":"4","parameterNumber":3,"parameterNumberName":"V-component_of_CURRENTS"},"data":[0,0,0,0.0342,0.0343,0.0391,0.0391,0.0434,0.0435,0,0,0,0,0,0,0,0,0,0,0,0.0321,0.0321,0.0342,0.0343,0.0391,0.0391,0.0434,0.0435,0,0,0,0,0,0,0,0,0,0,0,0.032,0.0321,0.0321,0.0344,0.0391,0.0391,0.0434,0.0402,0,0,0,0,0,0,0,0,0,0,0.0357,0.0347,0.0321,0.0321,0.0344,0.0391,0.0391,0.04,0.0404,0.0409,0,0.0417,0,0.0431,0.0437,0.0438,0,0,0,0.0339,0.0344,0.0353,0.0321,0.0344,0.039,0.0368,0.0402,0.0406,0.0414,0.0418,0.042,0.0432,0.0438,0.0438,0.0458,0.0458,0,0,0.0337,0.0333,0.0351,0.0356,0.0358,0.0367,0.037,0.0405,0.0411,0.0418,0.0421,0.0433,0.0438,0.0438,0.0458,0.0458,0,0,0,0.0332,0.0331,0.034,0.0354,0.0366,0.0368,0.0372,0.0409,0.0411,0.0422,0.0433,0.0438,0.0439,0.0458,0.0458,0.0462,0,0,0,0.033,0.0329,0.0338,0.0337,0.0366,0.0393,0.0376,0.0409,0.0413,0.0433,0.0438,0.0439,0.0458,0.0458,0.0462,0.0503,0,0,0,0.0318,0.0328,0.0333,0.0337,0.036,0.0393,0.0397,0.041,0.042,0.0438,0.0439,0.0459,0.0458,0.0462,0.0502,0.0506,0,0,0,0.0314,0.0342,0.0333,0.0365,0.0359,0.0397,0.0396,0.0427,0.0443,0.0438,0.0458,0.0458,0.0462,0.0501,0.0505,0.0521,0,0,0,0.0351,0.0347,0.0365,0.0358,0.0394,0.039,0.042,0.0439,0.0438,0.0445,0.0446,0.0462,0.0502,0.0506,0.0506,0,0,0,0,0.0377,0.0389,0.0398,0.0415,0.043,0.044,0.0451,0.0442,0.0441,0.0447,0.0456,0.0482,0.0484,0.049,0.0457,0.0457,0.0457,0.0457,0.0457,0.0423,0.0423,0.0455,0.0457,0.0472,0.0476,0.0475,0.0462,0.0456,0.0443,0.0478,0.0482,0.0486,0.045,0.045,0.045,0.045,0.045,0.045,0.0473,0.0484,0.0488,0.0523,0.0519,0.0545,0.0512,0.0493,0.0482,0.0469,0.0469,0.0486,0.045,0.045,0.045,0.045,0.045,0.045,0.045,0.049,0.0495,0.0525,0.0568,0.0603,0.0602,0.0625,0.0583,0.052,0.0517,0.0526,0.0497,0.0504,0.0515,0.0515,0.0516,0.0516,0.0516,0.0516,0.049,0.0517,0.0569,0.0616,0.0669,0.071,0.0703,0.0684,0.0615,0.0565,0.0538,0.0505,0.0502,0.0508,0.0519,0.0518,0.0518,0.0518,0.0517,0.0496,0.0522,0.0597,0.066,0.0772,0.0799,0.0803,0.0736,0.0709,0.0648,0.0571,0.0568,0.0577,0.0574,0.0582,0.0615,0.0616,0.0616,0,0.0498,0.0514,0.0624,0.0731,0.082,0.085,0.0838,0.0798,0.0689,0.0674,0.0687,0.0604,0.0599,0.0612,0.061,0.0622,0,0,0,0.0504,0.0539,0.0617,0.073,0.0845,0.0834,0.0827,0.0791,0.0714,0.068,0.0623,0.0621,0.0603,0.0527,0.0534,0.0531,0.0541,0,0]}]]